Tracking 19709 objects as of 19-Jun-2019
HD Live streaming from Space Station
objects crossing your sky now

METEOR 2-8 DEB

Track METEOR 2-8 DEB now!
10-day predictions


NORAD ID: 36323
Int'l Code: 1982-025H
Perigee: 864.8 km
Apogee: 881.1 km
Inclination: 82.5 °
Period: 102.3 minutes
Semi major axis: 7243 km
RCS: 0.0079 m2 (small)
Launch date: March 25, 1982
Source: Commonwealth of Independent States (former USSR) (CIS)
Launch site: PLESETSK MISSILE AND SPACE COMPLEX (PKMTR)

Note: This is SATELLITE DEBRIS
aabbcc
Your satellite tracking list
Your tracking list is empty




NASA's NSSDC Master Catalog

Two Line Element Set (TLE):
1 36323U 82025H   18132.81578517 +.00000034 +00000-0 +10606-4 0  9995
2 36323 082.5335 173.2281 0011309 156.7106 203.4582 14.08121027480663
Source of the keplerian elements: AFSPC